Location: Clanezzo
(45.7500°N, 9.6000°E)
Time: 09:41:28
(UTC+00:00)

CUTE-I - Pass Details

Date: 08 December 2023
Orbit: 807 x 823 km, 98.7° (Epoch: 02 March)

Event Time Altitude Azimuth Distance (km) Brightness Sun altitude
Rises 04:09:23 0° 33° (NNE) 3,363 ? -27.0°
Reaches altitude 10° 04:13:24 10° 63° (ENE) 2,426 ? -26.3°
Maximum altitude 04:15:30 12° 87° (E) 2,267 ? -25.9°
Drops below altitude 10° 04:17:36 10° 110° (ESE) 2,421 ? -25.5°
Sets 04:21:35 0° 140° (SE) 3,347 ? -24.8°
